Regional Weather Roundup
Issued by NWS

Home | Current Version | Previous Version | Text Only | Print | Product List | Glossary On
Versions: 1 2 3 4 5 6 7 8 9 10 11 12 13 14 15 16 17 18 19 20 21 22 23 24 25 26 27 28 29 30 31 32 33 34 35 36 37 38 39 40 41 42 43 44 45 46 47 48 49 50
000
ASUS43 KBIS 011302
RWRND

NORTH DAKOTA REGIONAL WEATHER ROUNDUP
NATIONAL WEATHER SERVICE BISMARCK ND
800 AM CDT SUN MAY 01 2016

NOTE: "FAIR" INDICATES FEW OR NO CLOUDS BELOW 12,000 FEET WITH NO
SIGNIFICANT WEATHER AND/OR OBSTRUCTIONS TO VISIBILITY.


NDZ001>003-009>011-017-011400-
NORTHWEST NORTH DAKOTA

CITY           SKY/WX    TMP DP  RH WIND       PRES   REMARKS
WILLISTON      SUNNY     38  31  76 CALM      30.35R
MINOT          SUNNY     43  30  60 CALM      30.34R
MINOT AFB      SUNNY     39  30  70 N7        30.33S
$$

NDZ018>021-031>035-040>046-011400-
SOUTHWEST NORTH DAKOTA

CITY           SKY/WX    TMP DP  RH WIND       PRES   REMARKS
BISMARCK       SUNNY     40  32  73 W3        30.34R
DICKINSON      MOSUNNY   35  30  82 CALM      30.31R
GARRISON         N/A     38  31  76 N6        30.33R
HETTINGER ARPT SUNNY     33  28  81 NW6       30.34R
$$

NDZ004>008-012>016-024-026-027-054-011400-
NORTHEAST NORTH DAKOTA

CITY           SKY/WX    TMP DP  RH WIND       PRES   REMARKS
GRAND FORKS    MOSUNNY   40  31  70 N8        30.32R
GRND FRKS AFB  MOSUNNY   43  29  59 N7        30.32R
DEVILS LAKE    SUNNY     42  31  64 N5        30.33R
$$

NDZ022-023-025-028>030-036>039-047>053-011400-
SOUTHEAST NORTH DAKOTA

CITY           SKY/WX    TMP DP  RH WIND       PRES   REMARKS
FARGO          SUNNY     42  31  64 N3        30.30R
JAMESTOWN      SUNNY     39  31  72 N5        30.30R
$$





USA.gov is the U.S. government's official web portal to all federal, state and local government web resources and services.